Voltar ao catálogo

STARLINK-36098

AtivoComunicaçõesVLEO
NORAD 66816·PAYLOAD·🇺🇸 United States

Lançado Dec 1, 2025 de Cape Canaveral Space Force Station

Loading…

Próximas Passagens (próximas 24 horas)

TLE

AtualizadoSource: CelesTrak SupGP

Época: Sep 15, 2026, 02:50 UTC

1 66816C 25278AB  26258.11854167  .00049430  00000+0  17902-2 0  2585
2 66816  42.9996 124.1636 0001473 271.1115 117.3577 15.27557354    10

Acompanhe STARLINK-36098 em tempo real com AllMySat

Download on the App Store